{"data":{"norad_id":62141,"intl_designator":"2024-224C","name":"STARLINK-32482","alt_names":[],"object_type":"PAYLOAD","status":"ACTIVE","operator":null,"country":"US","launch_date":"2024-11-30","launch_site_code":"AFETR","launch_vehicle":null,"mission":null,"orbit_class":"UNKNOWN","rcs_meters":null,"size_class":null,"mass_kg":null,"dimensions":null,"purposes":["comms"],"wikipedia_slug":null,"has_3d_model":false,"image_url":null,"decayed_at":null,"tle_current":{"epoch":"2026-05-25T04:49:27.506784Z","epoch_age_seconds":68053,"freshness":"FRESH","line1":"1 62141U 24224C   26145.20101281  .00013754  00000+0  50849-3 0  9999","line2":"2 62141  42.9974  85.8218 0001159 263.9606  96.1114 15.27573429 84022","mean_motion":15.27573429,"eccentricity":0.0001159,"inclination_deg":42.9974,"raan_deg":85.8218,"arg_perigee_deg":263.9606,"mean_anomaly_deg":96.1114,"bstar":0.00050849,"rev_number":8402,"period_min":94.267154210889,"perigee_km":482.27355829911,"apogee_km":483.86398579707,"semimajor_km":6861.2057720481,"source":"CELESTRAK","updated_at":"2026-05-25T13:38:19.568938Z"}}}